Tracking 28126 objects as of 2-Oct-2023
HD Live streaming from Space Station
objects crossing your sky now

STARLINK-6231

Track STARLINK-6231 now!
10-day predictions
STARLINK-6231 is classified as:


NORAD ID: 56779
Int'l Code: 2023-078N
Perigee: 363.9 km
Apogee: 368.6 km
Inclination: 70.0 °
Period: 91.7 minutes
Semi major axis: 6737 km
RCS: Unknown
Launch date: May 31, 2023
Source: United States (US)
Launch site: AIR FORCE WESTERN TEST RANGE (AFWTR)
Your satellite tracking list
Your tracking list is empty




NASA's NSSDC Master Catalog

Two Line Element Set (TLE):
1 56779U 23078N   23274.78636994 -.00000924  00000-0 -59184-5 0  9993
2 56779  69.9959  66.0387 0003510 263.7600  96.3196 15.69915636 19696
Source of the keplerian elements: AFSPC